Погода в Скиптоне

Великобритания     53°57′16″N   2°01′32″W
темп.,
°C
ветер,
м/с
пор.,
м/с
влажн.,
%
обл.,
%
осадки,
мм/ч
давл.,
гПа
погр.,
м
27 января, чт
чт2700:00+7зюз111997100 2.7 1021901
03:00+8з111897100 0.3 1020972
06:00+6зсз9178844 0.4 1021884
09:00+6зсз10167289 0.0 10231184
12:00+7зсз9177822 0.0 10261439
15:00+7зсз7137911 0.1 10271167
18:00+4з41093100 0.1 1030294
21:00+3з239748 0.0 103242
28 января, пт
пт2800:00+2зюз119899 0.0 103413
03:00+3з3797100 0.0 1034330
06:00+3зюз379667 0.0 1033285
09:00+3зюз51398100 0.0 1033508
12:00+5зюз71587100 0.0 1031742
15:00+6юз61590100 0.0 1028635
18:00+8зюз111795100 0.0 1026913
21:00+9з111994100 0.0 1025889
29 января, сб
сб2900:00+8з111997100 0.0 1024829
03:00+9з152392100 0.0 1021819
06:00+9з12209199 0.0 1021844
09:00+8зюз132589100 0.0 10181129
12:00+9з20319099 0.0 10151543
15:00+5зсз18287620 0.1 10191173
18:00+3зсз1323725 0.1 1024991
21:00+2сз715738 0.0 1030965
30 января, вс
вс3000:00+2зсз612795 0.0 1032606
03:00+1зсз5127999 0.0 1034543
06:000зсз358246 0.0 1035108
09:00+1з1182100 0.0 103625
12:00+3з236441 0.0 1035538
15:00+4зюз2463100 0.0 1033634
18:00+1зюз2282100 0.0 103120
21:00+2ююз2388100 0.1 1028120
31 января, пн
пн3100:00+1ю23100100 1.9 1023155
03:00+1ссв11100100 2.7 102172
06:00+1сз41095100 2.9 1022809
09:00+2зсз7148470 0.0 1023709
12:00+3сз81480100 0.0 10241222
15:00+3зсз71484100 0.1 10251122
18:00+3зсз61495100 0.3 1026791
21:00+4з71297100 1.1 1025886